This is the latest recevied weather packets stored in our database for station/object IU0SZS-10. If no packets are shown the sender has not sent any weather packets the latest 10 day(s).
| Time | Temp. | Humidity | Pressure | Rain* | Wind** | Luminosity | Snow |
|---|---|---|---|---|---|---|---|
| 1777874422 | 11.11° C | 63% | 919.6 hPa | - | - | - | - |
| 1777873522 | 11.11° C | 64% | 919.6 hPa | - | - | - | - |
| 1777872621 | 10.56° C | 65% | 919.4 hPa | - | - | - | - |
| 1777871721 | 10.56° C | 66% | 919.4 hPa | - | - | - | - |
| 1777870821 | 10° C | 69% | 919.2 hPa | - | - | - | - |
| 1777869921 | 10° C | 66% | 919.1 hPa | - | - | - | - |
| 1777869021 | 10° C | 64% | 919.1 hPa | - | - | - | - |
| 1777868119 | 10° C | 64% | 918.9 hPa | - | - | - | - |
| 1777867219 | 10° C | 65% | 919 hPa | - | - | - | - |
| 1777866318 | 10° C | 67% | 918.9 hPa | - | - | - | - |
| 1777865417 | 10° C | 66% | 918.9 hPa | - | - | - | - |
| 1777864517 | 10° C | 68% | 919.1 hPa | - | - | - | - |
| 1777863617 | 10° C | 69% | 919 hPa | - | - | - | - |
| 1777862717 | 10° C | 69% | 919.1 hPa | - | - | - | - |
| 1777861817 | 10° C | 70% | 919.2 hPa | - | - | - | - |
| 1777860917 | 10.56° C | 68% | 919.3 hPa | - | - | - | - |
| 1777860016 | 10° C | 69% | 919.2 hPa | - | - | - | - |
| 1777859116 | 10.56° C | 66% | 919.3 hPa | - | - | - | - |
| 1777858249 | 10.56° C | 66% | 919.3 hPa | - | - | - | - |
| 1777858214 | 10.56° C | 66% | 919.3 hPa | - | - | - | - |
| 1777857310 | 11.11° C | 64% | 919.3 hPa | - | - | - | - |
| 1777856409 | 11.11° C | 65% | 919.3 hPa | - | - | - | - |
| 1777855509 | 11.11° C | 64% | 919.4 hPa | - | - | - | - |
| 1777854609 | 10.56° C | 67% | 919.4 hPa | - | - | - | - |
| 1777853709 | 10.56° C | 68% | 919.5 hPa | - | - | - | - |
* Rain since midnight (hover to see other rain measurements)
** Current wind speed in m/s (hover to see current wind gust speed)